Tracking 35035 objects as of 16-Aug-2026
HD Live streaming from Space Station
objects crossing your sky now

AGILA

Track AGILA now!


NORAD ID: 62456
Int'l Code: 2024-252C
Launch date: December 29, 2024
Source: United Kingdom (UK)
Launch site: AIR FORCE EASTERN TEST RANGE (AFETR)
Your satellite tracking list
Your tracking list is empty




NASA's NSSDC Master Catalog

Two Line Element Set (TLE):
1 62456U 24252C   26228.23756538 -.00000192  00000-0  00000-0 0  9990
2 62456   0.0548 250.0775 0001163 248.4310  63.7843  1.00272634  5765
Source of the keplerian elements: AFSPC